[Date Prev][Date Next][Thread Prev][Thread Next] - [Date Index][Thread Index][Author Index]

2 Line ISS Keps 6-29



ISS
1 25544U 98067A   05179.85568287  .00006452  00000-0  50406-4 0  7962
2 25544 051.6436 201.0812 0004012 321.3841 043.3815 15.73143532377522
----
Via the sarex mailing list at AMSAT.ORG courtesy of AMSAT-NA.
To unsubscribe, send "unsubscribe sarex" to Majordomo@amsat.org



AMSAT Top AMSAT Home